| time (UTC) | temp F | wind direction | speed MPH | gust MPH | rain 1hr in | rain 24hr in | rain mn in | humidity % | barometer mb |
| 20260504224609 | 71 | 7 | 9.0 | 20.0 | 0.00 | 0.00 | 0.00 | 34 | 1000.6 |
| 20260504223056 | 72 | 350 | 10.0 | 21.0 | 0.00 | 0.00 | 0.00 | 33 | 1000.3 |
| 20260504221557 | 72 | 324 | 11.0 | 24.0 | 0.00 | 0.00 | 0.00 | 35 | 1000.0 |
| 20260504220058 | 73 | 46 | 10.0 | 20.0 | 0.00 | 0.00 | 0.00 | 33 | 999.8 |
| 20260504214553 | 75 | 309 | 7.0 | 19.0 | 0.00 | 0.00 | 0.00 | 33 | 999.6 |
| 20260504213123 | 75 | 72 | 11.0 | 20.0 | 0.00 | 0.00 | 0.00 | 32 | 999.3 |
| 20260504211555 | 76 | 357 | 12.0 | 20.0 | 0.00 | 0.00 | 0.00 | 32 | 999.2 |
| 20260504210050 | 77 | 27 | 13.0 | 20.0 | 0.00 | 0.00 | 0.00 | 34 | 999.0 |
| 20260504204553 | 78 | 20 | 8.0 | 20.0 | 0.00 | 0.00 | 0.00 | 37 | 999.0 |
| 20260504203104 | 78 | 358 | 11.0 | 17.0 | 0.00 | 0.00 | 0.00 | 37 | 998.8 |
| 20260504201548 | 79 | 54 | 10.0 | 18.0 | 0.00 | 0.00 | 0.00 | 38 | 998.6 |
| 20260504200051 | 79 | 288 | 5.0 | 16.0 | 0.00 | 0.00 | 0.00 | 38 | 998.6 |
| 20260504194559 | 80 | 319 | 4.0 | 12.0 | 0.00 | 0.00 | 0.00 | 36 | 998.6 |
| 20260504193147 | 79 | 319 | 2.0 | 11.0 | 0.00 | 0.00 | 0.00 | 38 | 998.5 |
| 20260504191544 | 81 | 250 | 3.0 | 12.0 | 0.00 | 0.00 | 0.00 | 35 | 998.6 |
| 20260504190043 | 80 | 223 | 5.0 | 13.0 | 0.00 | 0.00 | 0.00 | 36 | 998.7 |
| 20260504184541 | 79 | 286 | 7.0 | 12.0 | 0.00 | 0.00 | 0.00 | 35 | 998.7 |
| 20260504183039 | 80 | 239 | 5.0 | 14.0 | 0.00 | 0.00 | 0.00 | 34 | 999.0 |
| 20260504181536 | 79 | 265 | 5.0 | 14.0 | 0.00 | 0.00 | 0.00 | 37 | 998.9 |
| 20260504180036 | 78 | 248 | 4.0 | 14.0 | 0.00 | 0.00 | 0.00 | 36 | 999.0 |
| 20260504174534 | 78 | 340 | 5.0 | 13.0 | 0.00 | 0.00 | 0.00 | 36 | 999.1 |
| 20260504173042 | 78 | 251 | 3.0 | 13.0 | 0.00 | 0.00 | 0.00 | 38 | 999.1 |
| 20260504171532 | 78 | 127 | 4.0 | 13.0 | 0.00 | 0.00 | 0.00 | 36 | 999.3 |
| 20260504140106 | 66 | 236 | 5.0 | 11.0 | 0.00 | 0.00 | 0.00 | 48 | 1001.5 |
| 20260504081558 | 45 | 298 | 0.0 | 0.0 | 0.00 | 0.00 | 0.00 | 73 | 1004.0 |
| 20260504044540 | 47 | 298 | 0.0 | 0.0 | 0.00 | 0.00 | 0.00 | 71 | 1006.2 |
| 20260504043034 | 47 | 298 | 0.0 | 0.0 | 0.00 | 0.00 | 0.00 | 72 | 1006.5 |
| 20260504041528 | 48 | 298 | 0.0 | 0.0 | 0.00 | 0.00 | 0.00 | 71 | 1006.6 |
| 20260504040026 | 48 | 298 | 0.0 | 0.0 | 0.00 | 0.00 | 0.00 | 72 | 1006.7 |
| 20260504034533 | 49 | 298 | 0.0 | 0.0 | 0.00 | 0.00 | 0.00 | 69 | 1006.8 |
| 20260504033031 | 49 | 298 | 0.0 | 0.0 | 0.00 | 0.00 | 0.00 | 68 | 1006.9 |
| 20260504031522 | 51 | 298 | 0.0 | 0.0 | 0.00 | 0.00 | 0.00 | 65 | 1007.0 |
| 20260504030023 | 52 | 298 | 0.0 | 0.0 | 0.00 | 0.00 | 0.00 | 61 | 1007.0 |
| 20260504024522 | 54 | 298 | 0.0 | 0.0 | 0.00 | 0.00 | 0.00 | 56 | 1007.0 |
| 20260504023020 | 56 | 298 | 0.0 | 0.0 | 0.00 | 0.00 | 0.00 | 53 | 1006.9 |
| 20260504021525 | 57 | 298 | 0.0 | 1.0 | 0.00 | 0.00 | 0.00 | 51 | 1006.7 |
| 20260504020018 | 57 | 298 | 0.0 | 0.0 | 0.00 | 0.00 | 0.00 | 50 | 1006.7 |
| 20260504014519 | 60 | 298 | 0.0 | 0.0 | 0.00 | 0.00 | 0.00 | 46 | 1006.8 |
| 20260504013027 | 62 | 298 | 0.0 | 0.0 | 0.00 | 0.00 | 0.00 | 43 | 1006.5 |
| 20260504011517 | 65 | 298 | 0.0 | 1.0 | 0.00 | 0.00 | 0.00 | 40 | 1006.3 |
| 20260504010016 | 68 | 298 | 0.0 | 1.0 | 0.00 | 0.00 | 0.00 | 37 | 1006.2 |
| 20260504004515 | 70 | 298 | 0.0 | 4.0 | 0.00 | 0.00 | 0.00 | 35 | 1006.2 |
| 20260504003013 | 71 | 290 | 1.0 | 6.0 | 0.00 | 0.00 | 0.00 | 32 | 1006.1 |
| 20260504001513 | 72 | 301 | 2.0 | 7.0 | 0.00 | 0.00 | 0.00 | 31 | 1006.1 |
| 20260504000013 | 73 | 293 | 2.0 | 7.0 | 0.00 | 0.00 | 0.00 | 32 | 1006.1 |
| 20260503234511 | 73 | 308 | 4.0 | 9.0 | 0.00 | 0.00 | 0.00 | 30 | 1005.9 |
| 20260503233010 | 73 | 5 | 3.0 | 12.0 | 0.00 | 0.00 | 0.00 | 29 | 1005.9 |
| 20260503231509 | 74 | 282 | 3.0 | 9.0 | 0.00 | 0.00 | 0.00 | 30 | 1005.8 |
| 20260503230012 | 74 | 26 | 3.0 | 11.0 | 0.00 | 0.00 | 0.00 | 27 | 1005.9 |